Theta_e
298 299 299 299 299 299 299 299 299 299 299 298 298 298 298 298 299 299 299 299 299 299 299 299 299 300 300 301 302 302 301 300 301 301 301 302 302 301 302 303 304 303 302 301 300 301 303 306 308 309 310 310 310 310 310 310 309 310 318 321 313 312 316 314 313 313 313 313 311 309 309 309 309 310 311 312 311 311 312 312 313 313 315 319 324 327 327 329
299 299 299 299 299 299 299 299 299 299 299 298 298 299 299 299 299 299 299 299 299 299 299 299 300 300 301 301 303 304 303 301 301 301 301 301 301 302 304 304 305 305 304 303 303 303 305 307 308 309 310 309 308 309 310 310 310 310 313 315 311 312 313 310 311 310 310 312 310 309 309 309 308 309 310 311 310 310 311 311 312 313 313 314 315 317 318 320
299 299 299 299 299 299 299 299 299 299 299 298 299 299 299 299 299 299 299 299 299 299 299 299 300 300 302 302 303 304 305 302 301 301 301 301 302 304 305 305 305 306 305 305 305 305 306 307 307 308 309 307 306 308 309 309 310 309 310 313 312 312 311 309 309 308 309 310 309 309 309 309 309 309 309 310 310 310 310 310 311 311 312 311 312 312 313 314
299 299 299 299 299 299 299 299 299 299 299 299 299 299 299 299 299 299 299 300 300 300 300 299 300 300 301 304 304 303 306 304 300 301 301 302 303 304 305 305 305 305 306 305 305 305 306 306 306 307 307 305 305 307 307 307 310 309 310 312 310 310 311 308 308 308 308 309 309 308 309 309 309 309 309 309 309 310 309 310 310 310 310 310 310 311 311 312
299 299 299 299 299 299 299 299 299 299 299 299 299 299 299 299 299 299 299 299 300 300 300 300 300 299 300 303 304 304 306 304 300 301 302 303 304 304 305 305 305 305 305 305 305 305 305 306 306 306 306 304 305 306 305 307 308 308 308 309 308 308 309 307 307 308 307 308 309 308 309 309 309 309 309 309 310 309 309 309 309 308 308 307 308 309 309 310
299 299 299 299 299 299 299 299 299 299 299 299 299 299 299 299 299 299 299 299 299 300 300 300 300 300 300 300 302 303 304 302 300 301 303 304 304 304 304 304 304 305 305 305 305 305 305 306 306 306 305 305 305 305 305 306 307 308 307 306 306 306 307 307 307 306 306 307 308 308 308 308 308 309 309 309 308 308 307 307 307 306 306 306 307 307 307 307
299 298 299 299 299 299 299 299 300 300 300 300 299 299 299 299 299 299 299 299 299 300 300 300 300 301 301 300 300 300 301 300 300 302 303 304 304 304 304 304 304 304 305 305 305 306 306 306 307 306 305 305 305 305 306 305 305 307 307 305 305 305 306 307 306 306 306 306 306 307 308 306 307 309 308 307 306 306 306 305 305 305 305 306 306 305 305 305
298 298 298 299 299 299 299 299 300 300 300 300 300 300 299 299 299 299 299 299 299 300 300 300 300 301 302 302 300 300 300 300 301 302 303 303 303 303 303 303 304 304 304 305 305 306 306 307 308 308 306 306 305 305 305 305 305 306 306 305 305 305 305 306 306 306 306 306 306 307 307 306 307 308 306 305 305 305 304 304 304 304 304 304 303 303 304 304
298 298 298 299 299 299 299 299 300 300 300 300 300 300 299 299 299 299 299 300 299 300 300 300 300 300 301 302 300 300 300 300 301 302 303 302 303 303 303 303 303 304 304 304 305 305 306 307 308 308 307 306 305 304 305 306 306 305 305 305 304 305 305 305 306 306 306 306 307 307 305 305 307 307 304 304 304 304 304 303 302 303 303 302 302 302 303 303
298 298 298 299 299 299 299 300 300 300 300 300 300 300 300 299 299 299 299 299 299 299 300 300 300 300 300 300 300 301 299 300 301 302 303 303 303 303 303 303 302 303 303 303 304 304 306 307 307 308 307 307 305 304 304 305 305 305 305 305 304 305 305 305 305 306 306 306 306 305 303 303 305 305 304 302 302 304 303 302 301 302 301 301 301 301 302 302
298 298 298 299 299 299 299 300 300 300 300 300 300 300 299 299 300 300 300 300 299 299 299 300 300 300 300 299 300 300 299 300 301 302 303 303 304 304 303 302 302 303 303 303 304 304 304 305 305 306 307 307 305 305 305 304 305 305 305 304 304 305 304 305 305 305 306 306 306 304 302 301 302 303 302 301 302 304 302 301 301 301 301 301 301 301 301 301
298 298 298 298 298 299 299 300 300 300 300 300 300 300 300 300 300 300 300 300 300 300 299 299 300 300 299 299 299 299 300 300 301 302 303 303 304 304 302 301 302 302 303 303 303 303 303 304 304 304 306 306 305 305 305 305 305 304 304 304 304 304 304 304 304 305 305 305 305 305 302 301 301 301 301 301 302 304 301 300 301 300 301 300 300 301 300 300
298 298 298 298 298 299 299 300 300 300 300 300 300 300 300 300 300 300 301 301 301 300 300 300 299 300 300 299 299 299 300 301 302 302 302 303 304 304 302 301 301 302 302 303 302 302 303 304 304 303 303 304 304 305 304 303 304 305 304 304 305 305 304 304 303 304 305 304 305 305 302 300 300 300 300 300 302 303 300 300 300 300 300 300 300 300 300 300
298 298 298 298 298 298 299 300 300 300 300 300 300 300 300 301 301 301 301 301 301 300 300 300 300 300 299 299 299 299 300 301 301 302 302 302 303 303 303 301 301 301 302 302 302 303 304 304 304 303 302 303 303 303 303 302 303 304 304 304 305 306 305 305 303 303 305 303 303 303 300 300 300 300 300 300 301 301 300 300 300 300 300 300 300 300 300 300
298 298 298 298 298 298 299 300 300 301 301 301 301 300 300 300 301 300 301 302 302 301 301 300 301 300 300 299 299 299 300 301 302 302 301 301 301 302 303 303 301 301 301 302 302 303 304 304 303 302 301 302 302 303 303 302 301 303 305 305 305 305 305 305 303 302 303 302 302 303 301 300 299 299 300 300 300 300 299 299 299 299 299 299 300 300 300 300
297 298 298 298 298 298 299 300 300 300 301 301 301 301 301 300 300 300 301 301 301 302 302 302 301 300 300 300 299 299 300 301 302 302 301 300 300 300 302 302 301 300 300 301 301 302 303 303 302 300 301 301 301 303 302 302 302 302 304 304 304 304 305 305 304 302 302 301 301 302 301 300 299 299 300 299 299 299 299 299 299 299 299 299 299 299 299 299
297 297 298 298 298 298 299 299 300 300 301 301 300 300 301 300 300 300 301 301 302 301 302 303 302 301 301 299 299 299 299 300 301 302 301 300 299 299 300 301 300 300 300 300 300 301 301 301 300 300 300 299 300 302 302 302 303 303 303 304 304 304 304 305 305 303 301 300 300 300 299 299 299 299 299 299 299 299 299 298 299 299 299 299 299 299 299 298
297 298 298 298 298 298 298 299 299 300 300 301 301 300 300 301 301 301 301 301 302 302 302 302 302 304 302 299 299 299 298 299 300 301 302 301 300 299 299 299 299 300 300 299 299 299 300 299 299 299 299 299 299 300 302 301 301 302 303 305 305 304 304 304 305 304 301 300 299 299 299 299 298 298 298 299 299 299 298 298 298 298 298 299 298 298 298 298
297 298 298 298 298 298 298 299 299 299 300 301 302 302 302 301 301 300 300 300 301 301 301 301 301 302 301 299 299 299 298 299 299 301 301 302 302 301 300 299 299 299 299 300 299 298 298 299 298 299 299 298 298 300 301 301 301 302 302 303 304 305 305 303 304 304 301 300 299 299 299 298 298 298 298 298 299 298 298 298 298 298 298 298 298 298 298 297
297 298 298 298 298 298 299 299 299 299 300 300 302 303 304 304 303 302 300 300 300 299 299 299 299 300 300 299 299 299 299 299 299 300 301 302 302 302 301 299 299 298 298 300 300 297 297 298 298 299 298 298 299 299 300 300 300 301 302 303 303 304 306 305 304 303 302 302 301 299 299 299 298 298 297 298 298 298 298 298 298 298 298 298 298 298 298 298
297 297 298 298 298 298 299 299 299 300 300 301 301 302 303 302 303 302 300 300 299 299 299 299 299 299 299 300 299 299 299 299 299 300 300 301 302 303 302 300 299 299 297 298 299 297 297 298 298 299 298 297 298 298 300 301 300 301 302 303 303 302 305 306 304 304 303 304 303 301 302 301 300 298 297 298 298 297 298 298 298 298 298 298 298 298 298 297
297 297 298 298 298 298 299 299 299 300 301 301 302 302 302 301 301 302 301 301 300 299 299 299 299 299 299 300 299 299 299 299 300 299 300 300 301 303 302 300 300 299 297 297 298 298 297 298 299 299 296 296 297 297 299 301 300 301 301 303 304 301 304 307 305 305 305 305 304 302 302 303 302 299 297 297 297 297 298 298 298 298 298 298 298 298 298 297
297 297 298 298 298 298 298 299 299 300 300 301 302 302 302 302 301 301 301 301 300 300 299 299 299 299 299 299 299 299 298 298 299 299 299 300 301 302 301 300 301 300 298 298 299 298 298 298 299 297 295 296 298 297 298 300 300 301 301 302 303 300 303 308 307 305 304 305 305 304 305 305 305 302 297 297 297 297 298 298 298 298 298 298 298 297 297 297
297 297 297 298 299 298 298 299 298 299 299 300 301 301 302 302 301 301 300 300 300 300 300 299 299 299 299 299 299 300 299 298 298 298 298 300 301 301 300 300 302 302 300 299 299 299 299 299 298 296 295 297 298 297 297 301 302 302 301 301 301 300 301 304 304 305 306 307 306 308 310 308 308 305 300 297 297 296 298 298 298 298 298 298 297 297 297 297
297 297 297 297 298 299 298 298 298 299 299 299 300 300 301 300 301 302 301 301 301 299 301 300 299 299 298 299 299 299 300 299 298 298 297 299 301 302 300 299 301 303 302 301 301 301 300 298 297 296 297 298 298 298 297 300 305 304 301 300 300 299 301 302 303 307 310 308 303 304 309 310 309 307 303 300 297 295 296 297 297 298 298 297 297 297 296 296
297 297 298 297 298 298 298 298 298 299 299 299 299 299 300 299 300 301 303 308 305 299 300 300 299 300 298 298 299 299 302 301 298 297 297 299 300 301 301 300 300 301 302 301 300 299 299 298 297 296 297 298 297 298 297 298 304 305 300 300 299 298 302 303 305 309 311 307 302 301 306 311 310 307 306 303 297 295 295 295 297 297 297 297 297 296 296 296
297 297 297 298 298 298 298 297 297 298 298 298 298 299 299 298 299 299 304 314 309 299 299 301 300 299 298 298 298 301 303 302 299 297 297 299 299 300 301 300 300 299 298 301 303 299 298 301 300 297 297 298 297 297 298 297 301 305 302 299 299 300 303 304 305 308 308 306 304 300 302 310 311 308 306 302 297 297 296 295 296 297 297 297 297 296 296 295
297 297 297 297 298 298 297 297 297 297 297 297 298 299 299 299 299 302 308 310 303 298 299 300 299 298 297 298 298 299 300 299 299 298 296 299 299 299 300 298 299 298 296 302 307 300 298 301 300 298 298 298 298 297 297 297 300 305 302 298 298 300 302 303 306 308 306 306 305 300 300 307 311 308 306 303 298 297 296 295 296 296 297 297 296 296 296 296
296 296 297 297 297 297 297 297 297 297 297 297 298 300 301 299 300 305 311 305 298 298 299 298 299 298 296 298 298 297 298 298 299 298 296 297 299 299 298 296 296 298 296 301 305 300 298 299 298 299 298 297 298 297 296 297 300 301 297 297 299 300 301 304 306 308 308 307 304 298 299 305 308 307 306 302 298 296 296 296 295 296 297 297 296 296 296 296
296 296 296 297 297 297 296 297 297 297 297 297 298 300 300 301 306 311 309 302 298 298 298 298 299 298 296 299 300 297 297 298 297 297 296 296 297 297 297 296 295 298 299 299 301 298 297 299 298 299 298 297 297 296 294 295 297 297 297 302 305 303 305 306 305 305 307 306 303 298 297 302 306 307 305 301 297 296 297 297 296 296 297 297 296 296 296 296
296 296 296 297 296 296 297 297 297 297 297 297 298 299 300 303 314 319 303 298 298 298 299 298 298 298 298 299 300 298 297 298 296 297 298 296 295 295 296 297 296 302 305 301 301 300 298 300 299 298 298 296 296 297 296 295 296 297 299 305 306 304 304 306 308 307 305 304 302 298 298 301 305 306 304 303 301 297 296 297 296 296 297 296 296 296 296 295
296 296 296 297 296 296 297 296 297 297 297 299 299 300 304 308 312 310 302 298 300 300 299 298 298 298 299 298 298 297 298 299 296 296 297 296 295 294 295 295 295 303 308 301 300 302 301 300 297 297 298 296 297 302 300 299 299 298 300 303 306 307 305 305 309 307 303 302 299 297 298 301 304 306 304 303 302 297 295 296 296 296 297 296 296 295 295 295
295 295 296 296 296 296 296 296 297 296 297 301 300 302 312 317 306 301 301 301 298 296 296 298 298 298 299 300 299 297 297 298 296 296 296 295 297 296 295 293 292 298 301 299 299 302 303 301 297 299 300 296 297 300 301 301 300 299 301 302 305 308 305 305 306 300 299 303 299 295 298 302 303 303 303 302 299 296 295 295 296 296 296 295 295 295 295 295
295 296 296 296 296 296 296 296 296 297 300 302 303 304 309 311 305 299 300 300 297 296 297 298 299 298 298 299 298 296 297 297 296 296 297 299 300 299 296 294 293 295 297 299 299 298 301 302 298 298 298 297 296 297 297 298 299 300 301 300 302 304 302 302 303 299 299 302 299 296 299 302 302 301 302 299 296 295 295 294 295 295 294 294 294 294 294 295
295 296 296 296 297 296 297 297 296 298 301 302 308 311 307 305 304 302 302 300 298 299 298 297 299 300 299 299 297 296 297 297 296 297 299 299 299 298 296 295 294 293 295 299 297 295 298 299 297 297 296 295 296 296 296 298 299 300 300 301 301 301 301 301 299 297 297 298 301 302 300 300 300 299 299 297 294 294 294 294 294 293 293 293 293 294 294 295
295 296 296 296 297 296 297 297 296 299 300 304 314 312 304 302 300 301 302 299 299 300 298 298 302 302 302 301 300 298 297 296 296 299 299 297 296 296 296 295 293 293 295 297 296 296 299 299 297 297 296 295 295 295 296 298 299 300 300 301 298 297 300 301 296 295 295 297 301 301 299 300 299 299 300 298 295 294 293 293 293 293 293 293 293 294 294 294
295 296 296 297 297 297 298 296 297 299 299 306 316 307 298 296 296 298 299 298 298 299 299 300 300 300 302 302 299 299 298 296 296 300 300 296 296 296 296 296 294 292 293 295 296 295 296 300 299 296 297 297 294 295 297 296 297 301 301 298 296 295 299 298 296 299 299 298 300 298 297 299 298 298 300 298 296 295 293 292 292 293 293 292 293 293 293 294
295 296 296 297 297 296 297 296 297 299 299 308 315 303 295 295 296 296 298 297 297 299 301 303 299 297 300 300 298 297 298 297 298 300 300 297 297 296 295 296 294 292 292 293 297 295 293 299 300 296 296 297 295 297 299 297 296 298 297 296 296 297 299 298 297 299 299 298 300 298 295 296 296 298 299 296 295 295 293 292 292 292 293 292 293 293 293 293
296 297 296 297 297 296 297 297 297 298 303 310 310 301 295 296 296 296 297 297 297 299 300 300 298 296 298 298 297 296 297 297 297 298 298 297 297 295 294 295 294 293 292 292 296 295 293 297 301 298 294 294 296 299 300 298 297 297 297 297 299 298 298 297 295 296 298 298 299 298 297 298 299 299 298 296 295 293 293 293 291 292 292 292 292 293 292 292
297 297 297 297 297 297 297 297 297 300 306 306 302 298 296 296 297 296 297 297 297 298 299 298 297 297 297 297 295 294 296 297 296 297 297 296 297 296 294 294 293 292 292 293 295 294 293 295 299 299 296 295 298 299 297 296 297 299 299 298 298 298 297 296 294 295 297 298 299 299 298 299 300 299 297 296 295 293 293 292 291 292 292 292 292 292 292 291
297 299 299 297 297 296 297 299 298 298 301 298 294 296 296 296 297 295 296 296 296 296 297 298 297 296 297 297 296 295 296 298 297 297 297 295 296 297 295 294 293 292 292 294 294 294 294 295 296 298 298 299 298 296 295 296 296 298 298 295 295 296 297 297 296 295 295 296 298 298 296 297 298 297 295 294 293 292 292 292 292 292 292 292 292 292 292 291
298 300 298 297 297 297 298 301 296 294 299 298 295 296 297 297 296 295 295 295 295 295 296 296 296 296 297 297 297 297 297 297 297 297 297 295 296 296 295 293 292 292 293 294 293 293 294 294 295 297 297 296 295 293 293 293 293 297 296 294 295 295 296 297 297 296 295 294 295 294 294 296 296 293 293 294 292 292 292 292 292 292 292 292 292 292 292 291
297 298 297 297 297 297 298 300 297 295 297 296 294 295 297 297 296 296 296 294 294 295 296 296 296 296 296 296 296 296 296 295 295 296 296 296 296 296 294 293 292 292 293 293 292 293 294 294 295 297 296 295 294 293 292 291 292 296 295 294 295 294 294 295 294 294 294 294 294 294 294 296 295 292 292 293 292 292 293 293 292 292 292 292 292 292 292 291
297 297 297 297 297 298 299 302 303 299 295 294 295 296 296 296 296 296 296 294 293 294 295 296 295 295 295 294 294 294 294 294 294 294 294 295 295 294 293 293 292 292 292 292 293 293 294 294 295 296 297 298 299 297 296 295 295 294 293 293 293 293 292 292 291 291 293 293 294 294 294 295 296 294 292 292 292 292 292 292 292 292 292 292 292 292 291 291
298 298 297 296 297 298 299 299 301 299 295 296 297 295 295 296 295 295 295 293 293 294 294 294 295 295 294 293 294 294 293 293 293 293 293 293 294 293 293 293 292 292 292 292 293 293 293 294 294 295 297 298 299 298 296 295 294 292 292 292 292 292 292 292 292 292 292 291 291 293 293 294 296 295 293 292 292 291 291 292 292 291 292 292 291 291 291 290
299 300 299 297 296 297 297 295 295 296 296 298 298 295 295 297 295 294 294 294 294 295 295 294 295 295 295 294 295 295 293 292 292 293 293 294 295 293 293 293 292 292 293 293 293 293 293 293 293 295 296 295 295 294 292 292 292 292 292 291 291 291 291 292 292 291 292 291 290 292 292 292 293 293 292 292 292 291 291 291 291 291 291 291 291 291 290 289
299 299 299 299 297 296 295 294 294 295 296 298 297 295 296 296 294 293 294 294 294 295 295 295 294 295 295 295 295 294 294 292 292 293 294 294 294 292 292 292 292 292 293 293 293 294 294 294 293 293 294 293 292 291 291 290 290 290 291 291 290 291 291 292 291 291 291 292 291 291 291 291 292 291 291 292 291 291 291 291 291 291 291 291 290 290 289 288
299 297 295 297 298 297 296 295 294 293 294 295 296 295 296 296 294 294 294 293 294 294 295 295 295 295 295 295 294 294 293 292 292 292 293 293 293 292 292 292 292 293 294 293 292 293 293 294 292 291 292 292 291 290 290 290 290 290 290 290 290 290 290 291 290 290 290 291 291 291 291 291 291 291 291 291 291 291 291 291 291 291 291 290 290 289 288 288
297 296 294 296 297 296 295 294 293 293 294 295 295 294 296 296 295 294 294 294 295 294 294 295 296 296 294 293 294 295 294 294 294 293 292 293 293 293 294 293 291 292 293 292 291 291 292 293 292 291 291 291 290 291 291 290 289 289 290 289 289 289 290 290 290 290 290 290 290 290 290 290 290 291 291 291 291 291 291 291 291 291 291 290 289 289 288 288
296 296 295 295 295 293 293 293 293 295 296 296 296 295 294 296 296 293 293 295 297 295 293 295 297 295 293 293 294 295 294 294 295 294 293 293 293 293 294 293 292 292 292 291 291 291 292 293 293 291 291 291 291 291 291 290 289 289 289 289 289 289 289 289 289 289 290 290 290 290 290 290 290 290 291 291 291 291 291 291 291 291 290 290 289 289 288 288
297 297 295 295 295 293 292 293 292 294 297 297 296 295 294 295 295 293 293 294 295 295 293 295 296 295 293 294 294 294 293 293 293 293 293 293 293 293 293 293 292 293 292 291 292 292 292 292 292 292 291 291 291 291 291 291 289 289 289 289 289 288 289 289 289 289 290 290 290 290 290 290 290 291 290 290 291 290 290 290 291 290 290 289 289 288 288 288
297 296 295 296 297 294 292 293 293 295 298 297 295 295 295 295 293 293 294 294 293 294 294 293 294 294 294 295 295 294 294 293 292 293 293 293 293 293 293 293 292 293 292 291 292 293 292 292 292 292 291 291 291 291 291 290 290 291 293 292 291 290 290 290 290 289 290 290 290 290 291 291 291 291 290 290 290 289 290 290 290 290 290 289 289 289 289 288
Wind_Speed
15 15 15 15 15 14 13 14 14 14 15 15 16 16 17 18 17 17 16 15 13 13 16 18 19 16 7 2 8 22 31 34 36 44 47 39 32 29 30 29 29 29 26 25 25 18 15 18 19 15 11 14 16 13 9 10 12 4 2 5 4 2 3 3 2 2 1 2 8 14 18 11 10 20 18 15 23 25 23 25 26 27 27 23 19 17 18 17
14 14 14 15 15 14 14 13 14 14 14 15 16 16 17 17 17 17 16 15 13 13 16 18 19 19 12 2 3 13 26 34 40 46 42 32 30 30 28 30 32 31 29 28 27 24 22 23 24 22 21 23 22 19 14 13 17 9 3 4 4 2 1 3 3 3 4 3 8 12 15 13 11 15 17 11 15 24 19 19 25 27 28 30 29 26 25 24
14 14 15 15 15 14 14 13 14 14 14 15 15 16 17 17 18 18 18 17 14 12 15 19 20 23 20 1 7 5 16 32 46 45 37 31 30 28 28 32 33 33 31 28 25 22 20 21 22 22 27 27 23 25 22 16 15 12 8 5 3 1 1 6 9 8 9 6 8 12 14 15 15 17 17 7 9 18 14 14 19 22 27 29 30 29 27 28
15 15 15 15 15 14 14 13 13 13 14 14 14 15 16 17 18 19 19 18 15 12 12 19 23 26 26 11 7 6 6 24 40 39 32 30 28 27 29 30 33 34 32 28 26 20 15 18 22 23 26 21 22 27 21 15 11 8 8 4 1 2 1 11 14 13 14 9 8 12 15 16 17 19 20 14 10 10 12 18 22 23 28 30 31 31 29 30
15 14 15 15 14 14 14 14 14 14 14 14 14 14 15 17 18 19 18 17 16 13 10 14 22 29 31 24 8 7 2 9 24 32 28 28 27 27 28 30 32 33 32 29 27 24 17 16 22 26 23 15 18 18 12 15 13 6 6 3 3 4 2 11 16 15 16 14 14 15 13 13 15 19 24 21 10 8 15 23 30 32 33 34 35 35 34 34
15 15 15 14 14 14 13 14 14 14 14 14 13 13 14 16 18 18 17 17 17 16 13 9 15 25 31 32 25 18 15 7 19 29 26 26 26 26 27 28 29 30 32 31 30 30 26 24 24 21 13 10 12 9 9 14 14 6 4 6 10 9 5 11 15 15 20 22 16 11 12 17 18 16 24 27 19 19 26 31 36 38 38 38 39 39 39 39
14 15 14 14 14 13 13 14 14 14 14 14 13 13 13 15 17 17 17 19 19 19 18 12 9 12 21 31 34 40 37 19 21 24 23 25 24 25 25 25 27 29 31 33 34 31 30 31 27 17 7 7 9 9 10 12 16 11 1 7 11 10 10 11 13 14 22 25 16 12 16 19 14 12 25 32 31 34 36 37 40 41 41 41 42 43 42 41
14 14 14 13 13 13 13 13 13 14 14 14 13 13 13 15 16 16 17 19 21 22 22 20 13 5 10 19 28 42 40 26 22 21 20 23 23 25 25 25 26 28 31 32 33 31 31 30 25 17 8 6 8 8 11 10 13 10 2 8 10 11 14 16 17 17 23 25 19 18 18 15 11 18 31 31 32 38 38 40 42 42 44 44 44 44 42 42
14 13 13 12 12 12 12 12 13 13 14 14 13 13 13 15 16 17 19 20 21 24 25 27 22 15 15 17 26 34 28 22 19 19 19 21 24 26 26 27 28 27 29 30 31 31 30 27 21 13 6 6 8 7 10 9 6 6 4 8 10 14 16 20 23 19 20 24 24 21 18 22 18 19 26 27 30 37 41 42 43 45 46 44 44 44 43 42
13 13 12 12 12 12 12 12 12 13 13 13 12 12 13 14 15 16 19 21 23 23 25 27 27 27 26 30 37 25 16 17 16 14 18 21 23 25 26 27 28 27 28 29 30 30 28 25 18 9 5 7 9 8 9 6 4 6 5 8 13 17 22 27 27 23 17 20 25 19 17 29 28 20 14 21 31 37 42 42 42 45 43 42 43 43 43 42
13 12 11 11 12 11 12 12 12 13 13 13 13 12 11 12 12 12 14 18 23 25 26 24 26 31 34 43 44 21 14 17 13 13 16 18 21 23 25 26 26 27 27 29 29 28 27 25 20 11 5 5 6 9 13 12 10 9 9 11 16 22 28 30 26 25 15 13 19 14 21 32 29 21 9 17 33 38 42 40 40 42 39 40 42 43 44 42
12 12 11 11 12 11 12 12 12 12 12 13 13 11 10 9 10 11 12 13 16 21 25 26 25 27 35 47 41 20 17 16 12 13 12 14 18 20 23 24 24 25 25 28 29 29 27 26 26 19 10 4 3 5 11 15 16 17 14 8 12 18 22 25 23 24 15 13 16 6 17 23 16 14 11 17 33 39 41 38 36 38 37 38 40 42 43 42
11 11 11 11 11 12 13 13 12 12 12 12 12 12 11 8 8 9 11 13 14 15 17 23 26 28 34 37 30 20 16 15 13 11 9 12 15 15 20 23 24 24 23 25 28 31 32 26 26 27 22 12 4 5 9 15 16 15 14 8 7 10 11 18 24 24 17 16 14 11 7 9 8 14 16 18 33 41 39 35 34 35 36 37 38 40 41 42
10 10 10 10 11 12 13 13 14 13 12 11 9 10 11 11 10 8 8 9 13 17 15 15 17 26 34 27 22 22 16 15 16 14 15 15 13 13 16 20 23 23 22 23 27 32 34 29 30 31 27 18 10 8 9 14 12 6 7 7 5 5 4 11 20 21 13 14 25 26 8 4 6 15 19 21 33 42 35 31 33 34 35 36 36 38 39 39
9 10 10 9 10 11 12 14 15 15 15 14 12 9 9 13 15 14 14 11 9 13 17 17 14 18 25 21 18 21 16 17 20 20 22 19 17 16 14 16 21 22 22 23 25 29 32 35 36 29 25 27 23 11 5 7 7 4 4 5 4 4 4 8 19 21 9 10 24 24 6 3 6 15 19 22 33 41 33 30 31 32 33 34 35 35 36 36
8 9 9 8 8 9 11 13 15 16 17 18 17 14 9 10 12 14 17 18 16 11 9 15 20 22 18 12 16 22 22 21 20 18 20 22 22 19 13 13 16 20 22 24 26 28 31 34 31 28 30 29 18 6 5 6 5 5 4 4 3 5 4 5 14 22 13 12 18 16 6 2 5 13 20 22 30 37 32 29 30 31 32 32 33 34 35 36
8 9 9 8 7 6 7 9 11 14 18 22 24 23 18 11 6 5 7 10 14 15 13 9 12 19 17 13 17 24 26 23 17 13 15 20 24 21 14 13 15 17 20 24 28 28 31 29 19 19 25 19 8 5 8 6 4 5 4 4 2 4 5 3 6 16 17 13 12 13 10 5 4 11 20 22 28 35 30 27 28 29 31 31 33 34 35 37
8 8 8 8 7 5 3 3 4 6 11 18 22 24 26 23 15 11 8 5 5 9 16 15 8 7 11 18 18 17 23 22 17 13 11 14 20 23 21 19 16 15 16 19 26 28 23 20 16 12 13 12 9 7 6 3 2 4 4 3 3 3 5 5 3 8 11 12 10 11 10 7 5 9 18 21 26 32 26 25 27 28 30 31 33 34 35 37
7 7 8 8 7 5 4 2 1 2 5 7 9 13 17 21 23 25 25 23 20 11 8 16 15 6 3 17 16 10 17 22 20 15 10 8 12 20 24 24 22 21 16 10 17 25 15 10 16 11 8 8 7 6 5 3 3 5 4 4 3 4 3 3 4 4 6 11 10 9 9 7 6 8 13 17 24 29 24 25 27 27 29 31 32 33 33 35
7 7 7 8 7 6 5 4 3 2 2 6 6 2 2 6 12 20 31 36 33 23 14 16 17 11 5 15 18 10 12 20 23 19 15 12 8 13 24 26 27 28 18 5 7 16 11 9 12 7 5 7 7 6 3 4 4 6 5 5 6 5 3 3 4 7 4 8 6 5 8 7 6 7 9 13 22 26 22 23 25 25 28 29 30 31 31 31
7 8 7 8 7 6 6 6 5 3 2 3 4 3 1 5 5 7 19 26 25 23 23 21 18 15 11 16 21 16 12 17 23 22 19 19 12 10 21 24 19 18 16 9 3 6 10 11 8 6 7 8 6 5 3 5 7 7 5 5 7 6 4 4 4 8 7 6 3 3 8 6 5 5 7 14 20 19 19 20 22 23 26 27 29 29 28 28
8 8 8 8 8 8 8 7 6 4 5 5 6 9 12 15 13 10 12 14 15 18 20 21 21 19 15 13 17 18 18 18 22 25 22 22 20 13 15 18 11 7 12 10 3 5 11 10 7 10 11 8 4 6 6 7 8 7 6 5 5 5 4 5 4 8 8 5 1 1 7 5 4 4 8 15 17 15 18 21 21 23 25 26 27 27 27 27
8 8 9 9 9 9 9 8 7 6 6 5 7 12 15 15 16 15 12 9 10 13 15 19 22 22 19 14 13 16 22 20 19 25 25 21 19 14 12 12 7 4 9 10 8 8 8 5 10 12 12 7 6 10 9 7 6 6 5 5 1 4 3 2 4 8 7 2 3 2 5 3 4 4 7 13 15 16 20 21 22 24 24 24 25 25 26 27
7 8 8 9 9 9 9 9 7 5 5 5 5 9 12 12 12 11 8 6 5 8 12 15 18 22 20 17 14 11 18 20 18 23 24 21 17 10 8 7 5 5 6 8 11 10 5 3 10 10 9 8 7 12 11 6 5 4 3 5 0 3 1 3 4 6 5 3 2 3 4 3 4 4 5 8 11 14 18 20 21 22 22 22 23 24 24 24
7 8 8 9 9 8 8 8 7 6 6 5 3 6 8 8 8 5 4 5 3 5 9 10 14 18 18 19 14 4 8 15 19 23 20 18 16 7 5 6 6 5 4 4 8 8 4 4 10 9 7 9 7 8 9 5 3 4 1 4 0 4 4 4 4 3 3 4 3 3 2 3 3 3 3 4 6 9 13 16 17 18 20 21 22 22 23 22
7 7 8 9 9 8 8 7 8 9 7 5 2 3 4 4 4 2 2 4 3 5 7 7 9 14 17 21 15 2 3 8 14 21 17 14 14 7 4 6 5 4 3 2 4 3 3 7 9 6 5 7 6 4 5 5 4 3 1 3 2 3 3 2 2 3 2 0 2 3 4 2 3 1 2 2 4 6 8 11 13 15 17 19 19 19 20 21
6 7 7 8 8 9 9 8 9 9 7 5 3 1 2 3 1 1 2 5 4 4 6 7 6 11 14 18 17 5 1 10 10 19 19 11 12 9 5 4 4 5 3 1 3 1 2 8 7 7 7 6 5 4 4 4 3 2 2 5 4 2 3 2 3 3 1 1 2 4 3 2 2 2 4 1 5 5 6 6 9 12 15 15 15 15 18 20
5 6 7 6 8 9 9 8 8 9 8 6 4 3 2 3 3 1 4 4 4 4 4 5 4 9 10 12 20 13 4 11 8 14 18 9 9 11 9 4 1 4 7 4 2 1 2 5 6 7 8 6 4 4 5 2 1 5 5 7 5 4 4 4 4 3 1 2 2 6 4 2 2 4 3 3 4 4 5 4 5 8 11 11 11 13 16 18
5 5 6 6 7 8 8 8 7 7 8 6 5 4 5 6 5 3 5 2 3 3 3 5 4 9 10 7 17 17 10 11 7 11 15 10 9 8 6 6 3 4 10 9 5 1 1 2 3 4 5 4 5 6 5 1 1 9 9 6 2 1 2 3 3 2 2 4 0 5 4 1 2 4 2 3 3 1 4 4 3 5 8 9 10 12 14 17
4 5 6 6 6 7 6 6 7 7 7 6 4 5 7 6 5 4 3 1 1 2 3 5 4 9 13 6 10 15 11 11 12 14 17 15 15 14 7 5 7 4 6 9 5 1 4 1 2 3 3 5 6 6 2 2 6 11 6 4 3 4 4 2 2 3 4 3 3 4 4 1 0 3 3 1 1 3 2 3 3 2 7 8 9 11 13 15
4 4 5 6 6 6 5 6 7 7 7 6 4 6 7 3 4 6 1 2 1 2 3 5 3 7 10 4 5 10 8 8 13 14 13 13 16 20 12 4 7 5 3 6 5 5 7 4 3 3 5 9 5 2 2 3 8 8 3 3 2 3 4 3 5 4 4 3 5 4 4 1 2 3 3 3 3 4 5 2 3 0 5 7 8 11 13 14
3 4 4 6 6 7 6 6 7 7 6 6 4 5 5 2 3 2 1 2 1 2 2 2 3 4 5 4 4 6 4 5 10 8 5 5 7 11 10 3 3 4 4 5 4 5 4 2 6 4 3 11 6 1 4 6 9 8 4 5 3 2 4 2 3 3 0 3 4 1 4 1 3 4 4 4 4 5 5 3 1 3 6 8 12 14 15 13
3 3 4 5 6 6 6 6 7 7 6 5 3 4 5 4 0 2 2 2 0 1 1 0 2 2 2 4 4 5 4 3 7 7 3 3 4 4 7 8 6 2 1 3 3 5 4 4 8 5 2 9 7 3 3 4 7 7 4 4 3 2 3 2 4 3 2 5 4 2 3 1 2 2 4 6 6 4 2 4 4 7 9 12 15 17 16 13
3 3 4 5 5 5 6 6 6 7 7 4 3 3 4 1 2 1 1 3 1 1 1 0 2 3 4 4 2 3 3 2 5 6 4 4 5 3 5 9 10 4 2 3 2 3 3 4 5 3 3 8 6 3 2 1 3 4 0 3 3 3 3 2 3 2 3 5 6 4 1 2 1 1 5 9 9 6 9 10 10 10 12 16 18 19 16 11
2 3 4 4 5 5 5 7 6 7 7 4 4 4 1 3 3 2 1 3 1 1 1 1 3 4 4 3 2 2 2 2 4 5 5 4 3 2 2 4 7 4 3 3 1 1 1 4 5 3 4 4 5 4 0 3 1 2 1 4 2 2 3 1 2 3 1 2 4 3 1 3 1 1 4 9 8 7 11 12 11 12 14 18 19 21 17 10
2 3 4 5 5 6 7 8 7 8 7 3 5 3 2 3 2 2 1 0 1 1 0 3 3 4 3 4 3 4 3 2 3 4 4 3 1 1 1 1 3 4 3 2 0 1 2 3 4 4 3 3 8 6 2 3 0 1 3 1 2 2 4 2 1 1 3 2 3 2 1 4 2 1 1 3 3 6 8 9 10 11 16 21 20 21 19 12
2 2 3 5 6 7 7 8 7 7 7 4 5 1 3 2 1 2 1 1 2 2 3 2 2 2 1 2 3 5 4 3 3 3 2 2 2 1 1 0 2 4 3 2 0 1 1 3 4 2 1 6 11 6 1 5 3 2 2 1 1 2 3 3 1 4 4 1 4 2 1 4 2 1 2 3 4 5 5 7 10 12 17 21 20 22 22 16
2 1 3 5 6 7 7 7 7 6 6 5 5 2 2 1 0 0 2 2 2 2 4 2 0 0 1 0 2 4 3 3 2 3 2 1 1 1 1 1 2 6 6 3 1 1 0 3 5 2 1 7 11 4 2 5 6 4 2 2 2 2 0 1 2 1 2 2 5 4 2 3 3 4 3 1 1 3 5 5 8 11 14 18 20 22 22 16
2 1 3 6 6 6 7 6 6 5 5 5 3 2 2 1 1 2 3 2 2 3 3 3 1 2 1 2 1 3 2 2 1 2 1 0 1 1 1 1 2 8 10 4 2 1 1 1 4 3 1 4 7 4 1 5 6 4 2 2 2 3 3 0 1 2 1 1 4 5 3 2 5 4 5 5 3 1 4 5 6 10 13 17 21 21 17 14
2 1 2 6 5 6 6 5 5 5 5 3 3 2 1 2 3 4 3 2 2 2 1 3 2 2 1 1 0 1 2 2 1 1 0 0 0 1 1 1 1 7 9 4 3 1 2 2 3 5 4 2 2 1 1 2 3 2 3 3 3 2 1 1 1 2 3 2 2 3 5 4 5 3 5 6 5 4 3 6 7 12 16 20 22 18 13 13
2 2 2 5 5 5 5 5 7 7 4 2 1 1 1 3 5 4 4 3 3 3 3 3 3 3 3 2 0 0 1 1 1 1 0 0 1 1 1 1 0 4 5 3 3 2 1 1 1 4 5 2 2 3 2 3 4 2 1 1 0 1 2 2 2 2 1 2 4 2 5 7 5 2 5 6 5 2 5 7 11 18 22 24 23 16 13 18
2 2 2 4 4 3 3 5 7 5 3 2 2 2 3 4 4 3 3 4 4 4 4 3 3 3 3 2 1 1 2 1 1 1 1 1 1 1 2 2 1 2 3 1 1 2 1 3 1 4 4 4 7 7 4 2 2 3 2 1 2 1 3 4 2 3 1 1 1 2 3 7 5 2 2 3 1 7 14 17 19 23 26 27 22 16 17 22
2 2 2 3 2 2 3 4 4 4 2 2 3 4 4 3 3 2 2 2 2 2 2 2 1 1 2 2 2 2 3 1 1 1 0 1 1 2 3 3 1 2 3 1 1 2 2 2 1 4 5 4 6 6 4 2 5 5 2 2 3 2 2 4 4 2 1 2 1 2 4 7 5 3 1 3 9 16 22 24 23 25 28 25 19 16 21 25
3 4 3 4 2 1 3 2 1 1 1 2 4 4 4 3 3 2 1 1 1 2 2 1 0 1 2 2 3 3 4 2 1 1 2 1 1 2 3 2 0 1 2 0 0 1 1 1 2 2 5 6 6 6 5 5 4 1 3 1 2 3 3 2 2 3 1 5 6 5 6 7 3 3 5 11 17 21 22 24 24 25 27 22 18 19 24 27
3 3 4 6 3 1 3 4 5 5 2 3 4 2 3 4 3 3 3 2 3 2 2 1 1 3 2 2 3 1 2 2 1 1 1 0 2 3 4 4 2 0 0 2 2 1 1 2 2 3 1 3 4 3 3 3 3 3 2 0 1 1 1 1 1 1 3 5 6 6 7 7 5 6 10 13 14 15 18 23 25 25 23 20 20 23 27 28
2 1 2 5 6 6 8 6 6 7 5 3 3 1 2 2 2 3 4 3 3 3 3 2 3 3 2 2 2 1 1 0 1 1 1 1 2 2 4 5 5 3 2 1 2 2 2 0 2 5 5 5 5 5 4 1 2 5 8 7 4 4 4 3 3 4 3 2 5 8 11 14 14 12 10 10 9 10 16 23 25 24 21 20 22 25 26 26
2 1 0 2 4 7 9 7 6 7 6 5 3 2 3 3 1 2 2 1 2 4 3 2 2 2 1 2 2 1 2 1 1 1 2 2 3 2 3 5 4 3 1 3 3 3 3 2 3 6 6 7 5 5 5 3 3 7 12 13 8 6 5 6 7 7 3 1 7 9 9 13 17 14 12 11 10 11 17 23 24 22 21 22 24 25 25 26
1 1 2 3 1 2 4 4 5 9 8 5 3 3 4 3 2 2 2 1 3 4 2 1 1 2 3 4 3 1 2 1 1 2 2 2 2 2 2 2 2 2 4 5 2 3 3 2 4 3 4 7 6 6 6 5 5 7 12 14 10 8 8 10 13 13 7 6 12 9 7 12 17 17 16 15 16 18 22 25 23 21 23 25 24 24 27 30
3 3 3 4 3 4 5 5 9 12 9 4 2 2 4 4 4 3 2 3 1 2 3 1 3 4 5 4 3 3 3 1 1 4 2 2 2 0 1 1 1 3 4 4 1 2 3 2 4 2 4 7 6 8 9 7 6 7 12 14 10 9 11 12 15 15 12 14 18 17 17 18 18 18 18 22 26 25 23 23 22 24 27 26 25 26 29 32
4 4 4 5 5 7 8 8 10 9 5 2 2 2 4 6 5 3 4 5 2 2 4 3 4 6 7 6 4 3 5 5 4 3 4 2 1 1 2 2 2 2 2 2 1 1 2 2 2 2 4 7 6 7 8 7 5 7 15 18 13 11 12 13 15 13 11 14 17 17 17 17 17 17 18 23 25 20 18 21 25 28 29 26 26 29 30 32
7 5 6 6 4 4 6 6 6 5 2 1 3 3 4 5 7 5 4 5 4 4 6 7 5 4 4 5 5 6 8 7 5 4 6 5 4 4 4 4 5 4 1 2 2 1 2 2 1 2 3 5 3 4 6 7 7 10 16 19 14 10 9 9 9 8 8 9 11 11 11 11 12 13 13 17 17 16 19 24 27 30 29 26 27 30 32 33
9 8 8 7 2 2 5 5 3 3 2 3 5 5 4 6 9 9 3 2 5 5 5 8 8 5 2 3 7 10 10 7 6 6 5 6 7 8 8 8 9 7 4 3 2 2 3 2 1 1 3 3 1 1 3 7 9 9 10 10 8 7 6 5 6 7 8 7 5 7 8 9 12 14 13 14 15 16 19 23 27 29 29 29 30 31 33 34
Wind_Direction
54 49 46 45 47 48 50 50 50 50 48 45 43 44 45 48 48 48 48 48 52 52 45 35 28 24 22 121 58 45 40 37 40 41 39 32 21 20 19 16 12 11 7 4 13 30 44 47 50 59 77 69 52 48 54 43 33 49 98 71 79 47 36 16 8 359 352 329 327 348 6 15 5 7 22 32 32 39 47 49 49 55 59 60 60 52 45 42
56 52 49 47 48 50 51 51 51 50 48 45 45 47 48 51 50 49 49 50 57 58 51 39 31 23 12 200 147 50 38 34 40 40 34 30 29 28 25 26 23 19 18 18 23 32 39 44 50 59 65 56 44 46 51 40 36 44 87 77 64 50 45 15 8 1 2 331 329 354 9 18 14 5 20 32 26 32 38 37 43 54 57 59 62 63 63 64
56 52 49 48 49 51 53 52 52 51 48 47 48 50 50 55 56 53 52 51 56 63 56 44 38 29 21 36 182 77 34 28 32 29 25 30 33 32 31 31 28 26 27 30 35 41 47 51 53 59 62 51 40 47 41 29 39 45 61 69 23 294 245 10 9 6 2 348 342 359 12 16 18 18 25 35 30 32 31 24 35 46 49 53 59 62 64 65
54 51 48 47 47 51 53 52 53 51 49 48 50 52 55 61 62 57 53 52 55 62 62 51 47 40 33 45 171 187 22 27 25 16 19 32 35 35 35 32 31 30 30 38 46 53 61 57 58 62 60 45 35 49 39 28 54 45 57 112 304 281 334 9 6 6 5 9 9 12 22 15 17 27 27 34 45 32 14 21 38 50 51 53 55 56 58 58
53 50 47 46 47 50 51 51 51 50 48 48 50 54 61 67 65 61 55 53 52 54 61 60 57 54 49 52 95 197 244 26 12 11 24 34 38 38 36 35 33 31 33 41 47 55 65 60 61 59 56 41 28 45 33 35 71 61 51 118 353 15 42 4 8 21 24 37 38 30 32 15 21 34 33 41 47 8 16 38 56 61 57 55 55 54 55 53
53 50 47 45 46 48 48 49 49 49 46 46 50 53 66 74 72 67 62 58 55 50 51 65 71 66 63 63 71 82 86 64 360 13 29 35 40 39 36 35 34 33 35 41 42 45 50 51 58 52 50 50 27 32 18 34 72 82 34 24 9 19 17 0 19 39 39 44 41 35 41 27 33 39 31 34 31 34 50 60 65 63 59 58 56 54 52 50
52 49 47 45 46 48 47 47 48 47 44 45 48 54 72 81 77 72 67 65 61 56 51 56 80 75 69 66 65 67 66 47 12 21 33 36 40 37 36 36 35 35 34 37 36 35 38 41 46 38 45 60 16 7 12 38 67 75 59 0 6 17 19 22 39 51 44 38 30 37 45 31 34 45 31 33 45 60 67 64 63 61 59 58 55 52 51 49
53 50 47 45 45 48 47 48 49 46 43 45 48 61 80 83 80 76 69 68 63 62 57 55 63 72 72 62 57 56 46 25 19 28 34 39 40 35 34 35 36 38 36 35 30 31 34 32 31 29 48 54 10 2 14 34 54 58 49 352 9 30 34 44 45 49 45 32 30 48 47 28 35 55 44 42 57 64 66 61 59 60 57 55 53 50 49 49
56 52 47 46 46 48 49 51 50 46 46 49 56 71 85 84 83 78 69 67 63 62 60 59 60 64 80 77 64 54 30 10 20 26 35 40 37 32 28 30 35 40 42 40 36 36 35 27 22 28 48 34 16 13 21 35 40 22 7 4 32 49 41 41 36 38 42 31 42 60 42 23 35 59 48 45 59 63 63 60 58 59 57 53 52 50 49 48
59 55 49 47 48 50 51 53 51 48 51 55 65 78 86 88 87 79 69 65 63 61 59 60 60 62 70 71 68 58 14 16 25 24 35 34 30 28 26 29 34 42 46 45 41 38 36 30 26 38 53 29 17 19 25 34 24 1 29 56 62 59 41 34 27 23 34 34 43 66 49 30 44 68 52 42 60 65 63 58 56 59 57 53 53 51 50 49
62 59 52 49 52 53 53 54 52 51 58 63 70 80 86 87 85 77 71 65 62 60 58 57 58 59 61 63 65 52 16 29 26 24 31 28 27 25 26 30 34 44 49 48 45 40 42 41 44 62 52 10 5 26 33 39 59 58 74 80 57 51 37 29 21 15 27 24 20 58 55 33 42 61 49 48 63 66 63 58 56 58 56 54 53 51 51 49
63 62 56 54 56 56 55 54 53 55 63 69 73 79 82 85 84 77 73 68 62 61 59 56 55 57 59 59 57 43 30 36 34 35 32 31 34 29 32 35 38 46 49 49 51 49 51 50 52 56 43 29 2 23 34 43 65 63 62 67 39 45 34 21 14 10 25 6 350 53 51 26 25 36 27 54 68 66 61 57 54 55 54 53 52 51 50 47
60 63 61 61 63 64 60 57 57 60 65 72 76 75 74 82 91 86 75 68 64 62 62 59 56 57 62 59 50 46 46 41 48 55 48 47 47 42 41 41 44 51 55 56 57 57 57 57 58 53 45 45 29 47 51 42 55 52 47 51 26 42 25 13 11 10 23 15 31 100 65 13 5 19 25 47 68 67 58 54 52 52 52 50 50 49 48 46
53 62 63 64 74 77 71 67 65 64 66 69 71 72 75 78 88 90 76 72 68 62 59 60 57 56 62 63 49 48 53 49 55 52 45 47 50 52 46 43 48 55 62 65 66 64 63 64 66 58 45 42 41 59 53 34 41 38 40 39 18 47 357 353 9 14 25 32 68 90 73 22 12 11 28 42 66 70 60 54 52 51 50 49 49 48 47 45
48 56 59 64 79 91 89 82 76 71 70 69 66 72 86 86 83 79 70 70 76 71 62 58 59 61 61 59 45 44 53 55 50 42 38 36 38 41 38 42 50 58 67 70 71 69 68 68 65 54 40 43 48 51 36 24 31 15 41 28 355 44 340 335 11 18 33 39 64 85 85 56 30 7 27 44 63 69 63 56 53 52 51 49 48 47 46 44
47 50 55 60 72 98 107 97 86 78 75 73 68 67 85 99 89 82 76 69 69 75 69 56 55 61 62 44 33 39 45 45 42 44 42 37 37 35 39 53 57 63 68 70 74 73 69 67 61 48 40 41 41 37 48 36 17 6 58 70 0 33 7 336 12 13 37 52 48 77 113 98 25 10 31 48 61 66 63 56 54 53 51 50 49 47 46 43
50 48 51 55 58 87 120 119 103 88 82 81 76 71 72 81 92 95 82 70 70 64 60 60 54 59 57 35 29 32 33 34 39 50 49 43 43 43 54 63 59 65 64 60 63 62 59 57 55 48 41 37 16 26 58 42 17 3 26 69 25 46 37 8 7 3 29 65 59 71 89 83 30 22 39 48 60 65 62 56 55 53 51 50 49 47 45 44
54 50 47 50 51 55 84 145 147 122 101 91 85 80 74 72 75 82 84 91 96 68 53 48 49 70 43 25 23 21 26 33 36 43 52 51 48 47 52 55 55 63 59 49 44 42 44 46 49 49 34 28 15 30 64 64 71 42 24 52 0 29 52 36 24 353 26 65 68 70 77 67 45 35 44 48 59 65 62 58 56 53 52 49 47 47 44 44
58 54 50 46 45 45 41 24 290 202 162 136 109 91 82 74 71 71 71 72 71 71 52 37 47 102 40 16 21 19 29 35 36 40 48 47 45 45 50 55 53 50 48 39 29 27 25 36 42 40 15 11 2 12 67 94 113 104 82 84 39 21 28 10 0 340 57 71 55 68 83 67 49 38 42 47 60 65 61 58 56 52 51 49 47 46 43 43
58 55 53 46 43 43 45 33 7 336 198 186 184 175 83 54 56 57 58 63 65 66 70 57 59 86 70 25 28 32 36 37 38 40 37 31 35 40 41 44 44 42 34 10 17 15 16 44 39 20 341 342 339 346 46 88 88 99 85 64 57 42 358 335 354 342 38 81 42 57 85 69 54 41 35 51 61 61 58 57 56 53 52 49 48 46 43 43
58 53 51 48 44 41 49 45 24 19 62 150 190 214 101 63 72 60 56 63 65 62 61 58 59 60 49 30 28 30 35 38 41 41 36 32 39 43 33 31 37 36 13 357 14 2 28 52 22 337 326 322 324 336 28 66 58 66 66 50 46 39 342 304 345 349 3 69 27 26 79 58 39 45 40 55 61 57 57 61 59 57 55 51 49 46 43 41
56 51 48 46 43 42 45 44 39 57 76 88 112 108 101 96 101 99 83 77 65 58 51 47 48 44 41 37 29 28 29 30 32 34 32 34 45 52 33 32 46 35 3 5 27 17 42 48 344 332 334 324 342 16 41 56 52 54 51 53 36 7 324 298 332 352 359 62 96 13 80 50 0 36 45 55 64 64 65 68 65 62 59 54 50 46 42 39
55 50 49 44 43 41 36 39 43 52 74 85 102 103 102 104 105 100 98 98 67 54 42 37 36 30 30 30 18 28 39 33 16 16 21 26 37 45 36 37 52 32 16 31 46 46 53 17 328 336 344 352 25 29 38 45 43 51 49 61 27 331 1 338 336 340 342 75 137 94 82 45 348 14 40 54 65 67 68 72 70 66 63 59 54 49 44 40
58 52 51 45 44 42 35 37 38 41 78 89 100 111 110 105 108 108 98 101 88 51 35 32 27 21 22 14 3 26 48 42 20 8 13 18 23 33 32 27 43 40 29 50 63 74 99 302 331 349 3 20 30 27 31 36 27 17 46 81 63 308 338 215 275 320 339 30 61 44 42 0 350 13 20 38 54 60 64 69 68 66 65 62 56 51 46 42
60 53 53 49 46 48 47 42 40 48 64 77 108 127 121 108 103 106 82 87 75 13 22 25 21 18 13 6 4 40 61 43 28 7 5 19 19 21 29 18 41 32 358 59 72 78 91 354 6 15 15 20 33 38 26 21 20 343 13 101 71 276 254 245 277 337 27 17 357 47 52 300 316 24 7 358 32 44 48 56 61 64 64 60 54 48 44 42
65 58 53 51 51 53 59 52 46 48 47 57 103 144 151 141 100 57 32 68 24 335 359 6 9 12 10 7 3 78 88 28 24 10 9 26 19 20 30 10 41 27 324 92 76 86 37 10 24 30 17 24 38 58 30 25 37 340 253 86 26 249 229 279 359 53 87 328 324 70 118 239 311 8 274 327 35 29 30 43 53 61 63 58 52 44 40 38
71 66 57 55 57 58 65 61 50 48 48 51 50 86 192 210 192 329 5 44 9 331 354 355 359 10 16 17 19 91 143 339 2 16 18 29 24 44 60 356 33 16 318 126 59 60 7 0 14 23 23 32 27 20 358 17 46 262 274 23 348 250 190 183 105 99 187 237 330 14 90 160 284 258 258 3 59 23 6 21 38 60 64 58 52 41 38 35
66 68 63 60 63 64 66 63 55 53 51 50 45 70 139 173 175 103 72 68 344 338 6 359 15 20 25 37 41 72 68 352 6 11 14 31 27 47 63 21 50 359 0 94 120 291 353 7 16 24 21 21 8 320 289 319 85 249 297 344 307 243 190 170 129 147 222 67 350 333 24 113 253 271 304 27 61 13 349 343 11 59 69 62 54 42 36 30
52 60 60 59 63 67 68 63 61 57 53 57 64 86 120 135 147 76 72 120 328 358 13 355 359 2 4 41 42 46 43 25 20 2 19 48 33 45 76 31 30 20 25 65 127 250 327 42 52 56 40 2 312 292 284 116 301 285 304 335 318 116 138 137 103 126 52 54 302 312 352 117 259 279 306 40 64 335 298 293 325 67 79 68 54 40 27 19
37 43 47 47 50 55 63 62 58 55 51 58 81 112 125 127 117 66 50 203 335 355 347 2 355 347 355 20 29 21 27 25 9 10 31 47 42 50 81 39 24 44 33 40 72 334 312 336 62 68 39 335 289 293 303 180 305 307 317 8 35 31 35 70 40 72 64 0 245 274 310 168 257 282 231 171 152 189 228 282 294 67 81 70 48 31 17 10
34 32 35 33 30 32 45 51 42 42 44 51 90 126 133 120 73 86 96 257 337 337 357 11 356 359 8 28 15 359 8 16 9 18 28 29 33 35 38 20 7 28 30 13 20 348 344 14 5 334 0 355 334 305 312 297 337 345 16 45 44 346 7 30 354 33 76 303 238 249 309 129 157 268 220 213 246 200 180 216 264 134 84 61 32 17 8 7
38 31 28 27 21 16 24 29 25 27 32 49 103 143 135 47 24 100 259 318 336 320 17 7 334 8 15 25 16 346 346 6 11 29 36 20 33 32 34 32 351 21 14 353 355 347 348 338 328 313 10 13 16 24 335 338 2 11 21 36 61 2 4 16 331 358 156 256 224 246 348 78 212 248 185 187 233 216 201 222 222 100 73 36 16 8 0 3
35 28 20 20 15 8 13 13 13 20 23 47 120 143 91 68 339 219 281 337 133 302 19 226 335 14 37 32 10 339 354 347 355 14 20 40 57 42 34 26 15 48 19 343 355 356 341 300 337 355 15 10 29 75 6 338 358 4 12 40 81 80 37 292 293 326 279 276 277 328 0 279 261 259 184 178 177 166 90 48 74 83 50 21 9 2 354 360
29 28 15 9 6 355 5 8 5 17 20 37 116 109 66 70 225 163 289 264 216 313 3 75 349 14 43 51 347 323 22 349 348 11 358 30 49 18 16 13 12 44 92 40 25 17 8 302 333 4 327 354 25 75 114 157 353 337 244 96 102 130 124 222 244 245 272 291 297 320 6 203 227 216 193 165 142 100 66 70 75 62 30 11 5 2 358 359
30 29 6 359 1 348 0 7 3 16 12 19 78 77 100 231 230 127 225 248 231 316 336 22 54 45 12 356 337 356 62 337 355 28 13 32 65 15 10 349 357 28 80 57 17 0 24 273 280 310 302 351 10 332 111 118 29 303 116 80 51 160 141 169 201 197 222 314 300 301 229 223 233 266 203 160 133 64 63 73 61 40 15 3 1 3 4 357
27 18 357 351 352 351 3 4 1 8 2 21 67 66 194 212 201 155 173 237 127 156 352 359 43 61 357 323 341 359 23 5 13 33 11 18 49 17 50 279 345 35 75 94 34 346 12 276 286 329 309 4 3 326 343 73 27 299 57 61 251 170 127 114 304 349 59 51 287 272 253 296 336 14 266 131 93 27 49 54 33 19 4 358 356 357 357 346
18 7 357 353 354 356 0 357 357 360 356 43 85 133 208 186 176 175 34 50 136 114 89 50 2 41 345 316 323 329 348 359 18 46 25 6 4 342 42 338 26 47 54 96 168 297 354 280 301 5 267 329 347 335 50 54 60 77 66 190 208 68 88 100 48 0 30 0 279 287 253 298 322 211 285 31 40 2 7 17 10 1 355 353 349 348 347 343
15 352 347 353 358 358 356 354 353 352 8 58 91 143 178 139 306 27 40 68 121 70 84 117 253 85 177 170 314 313 350 3 7 42 35 356 10 0 52 4 21 27 19 39 122 244 336 294 301 345 236 311 342 18 78 10 25 67 125 169 106 77 1 45 74 9 358 294 289 308 294 253 230 207 217 198 81 352 327 339 349 339 340 344 341 342 348 354
354 343 352 352 355 357 356 354 344 350 33 71 119 169 159 148 69 62 66 81 90 68 91 157 157 58 105 135 280 302 2 30 25 46 60 111 40 32 71 95 342 2 5 38 115 265 13 48 282 300 291 302 341 38 90 324 351 36 49 7 40 120 167 178 78 156 175 270 283 310 330 256 236 209 179 194 183 124 315 304 304 312 326 336 337 342 352 360
6 86 12 347 351 0 357 354 1 26 58 86 155 163 137 141 111 81 79 96 82 68 118 183 146 85 76 116 32 313 29 51 63 76 145 134 53 301 27 113 319 345 357 40 88 354 13 79 256 295 340 345 336 51 144 272 308 352 24 11 353 7 93 42 10 132 136 158 218 293 301 260 244 207 160 181 177 165 264 268 283 313 327 333 335 341 348 348
27 76 9 344 350 355 353 16 33 52 82 88 114 128 113 136 125 91 77 92 90 85 118 142 133 132 147 130 97 176 67 34 49 77 294 298 61 309 261 131 56 344 358 31 48 14 357 101 245 300 335 349 255 269 284 255 235 193 111 75 347 323 73 80 302 314 87 159 173 208 285 271 255 207 154 160 170 219 299 305 317 325 328 329 331 337 337 338
46 64 355 341 346 348 15 45 42 53 97 95 63 95 118 123 121 102 85 88 90 87 93 111 119 126 149 153 147 150 128 100 150 108 331 253 184 203 207 157 113 23 31 42 328 5 81 103 69 281 274 271 280 298 317 270 171 106 90 98 109 99 92 115 207 269 330 295 163 138 264 271 264 237 125 124 248 320 332 335 331 325 323 326 328 326 325 329
71 85 16 348 358 44 68 65 39 32 66 106 89 90 108 112 103 112 101 66 73 80 66 85 131 115 166 181 147 157 170 144 155 170 206 276 249 207 184 167 143 29 39 66 274 358 41 94 69 290 286 301 307 318 341 24 75 68 5 17 84 92 116 143 174 183 192 249 190 129 248 266 276 281 284 307 315 326 331 329 324 318 319 322 319 315 320 324
91 84 48 25 5 134 98 103 116 82 85 110 87 76 81 84 77 95 120 69 68 103 88 69 225 104 152 155 120 158 189 159 139 195 155 167 227 202 185 183 237 24 51 105 244 3 332 163 105 359 338 339 343 348 341 353 36 39 303 333 92 94 90 110 111 89 205 226 190 180 240 255 260 296 311 316 321 323 320 315 314 313 313 311 306 312 320 322
107 88 49 39 33 146 118 121 139 138 139 104 93 93 80 71 64 78 107 101 80 91 96 74 111 111 115 106 84 97 204 169 189 264 95 148 250 221 207 217 236 257 22 266 261 174 171 176 127 94 33 296 302 300 271 309 341 305 284 245 120 35 3 311 63 111 246 232 182 189 248 263 267 295 307 312 315 311 304 304 307 307 303 298 302 313 318 319
122 126 39 38 47 83 95 102 120 130 152 138 107 128 118 95 87 98 105 102 87 99 96 97 122 107 65 68 82 27 280 107 107 123 144 234 257 228 209 218 239 271 300 262 225 165 128 130 175 164 185 229 252 253 245 294 325 282 282 283 275 266 244 197 168 197 210 226 225 229 249 270 279 283 288 292 293 293 296 301 304 300 295 296 306 313 314 314
106 98 160 58 53 75 81 81 102 121 149 155 137 159 147 129 146 122 110 119 142 138 104 76 135 134 131 156 129 225 234 76 63 165 173 217 245 252 231 230 249 271 180 140 161 138 95 318 237 188 211 245 265 271 271 277 244 253 274 280 270 252 222 192 216 226 181 308 263 234 226 261 277 282 285 288 290 292 294 297 297 294 295 303 309 310 309 311
131 149 140 114 96 101 82 77 112 117 122 130 124 142 143 136 160 168 164 151 154 162 143 16 250 202 189 176 137 157 202 89 331 221 178 203 252 335 314 251 212 181 152 140 157 126 109 258 245 195 235 258 273 282 274 264 251 250 265 271 265 254 233 222 236 237 212 236 256 252 253 269 277 283 286 287 289 290 292 293 292 293 299 306 308 308 311 315
137 139 134 117 125 134 119 126 131 119 111 108 102 138 160 167 180 185 155 117 122 208 185 201 249 219 193 179 137 147 203 195 265 245 198 176 229 249 319 280 183 170 158 137 160 127 108 249 233 204 278 273 267 277 277 275 273 271 272 270 259 248 241 238 247 246 232 240 253 265 274 273 271 273 278 283 286 286 285 286 289 294 301 305 307 308 311 314
161 154 149 127 108 113 121 132 134 118 95 87 115 178 177 170 181 188 166 154 152 196 184 198 232 206 193 189 161 184 214 184 166 206 179 148 255 217 204 219 165 156 150 132 216 172 140 248 216 160 288 283 257 258 273 281 278 273 276 274 263 254 253 250 253 251 242 247 254 261 268 269 267 267 269 277 282 281 279 282 288 294 299 302 304 306 308 311
185 177 164 140 106 113 135 139 135 118 90 166 169 177 180 188 189 170 168 195 180 164 187 196 190 182 191 195 196 226 233 205 193 219 201 195 219 211 207 196 163 147 148 174 198 170 171 264 355 98 285 286 239 232 276 302 297 272 270 271 260 242 239 243 246 233 221 237 252 257 259 263 273 280 277 274 273 270 272 280 286 291 296 299 300 302 305 307
185 176 173 160 123 155 163 151 130 126 173 207 177 167 183 202 186 165 147 227 192 168 193 195 174 152 159 207 223 237 240 236 250 262 247 244 245 235 239 227 192 177 171 171 192 194 181 222 0 114 271 289 163 167 317 330 315 283 261 255 238 213 217 243 258 238 214 215 239 252 251 262 287 299 295 283 275 268 269 276 283 288 292 296 297 299 303 304